Regional Weather Roundup
Issued by NWS

Home | Current Version | Previous Version | Text Only | Print | Product List | Glossary On
Versions: 1 2 3 4 5 6 7 8 9 10 11 12 13 14 15 16 17 18 19 20 21 22 23 24 25 26 27 28 29 30 31 32 33 34 35 36 37 38 39 40 41 42 43 44 45 46 47 48 49 50
000
ASUS43 KLSX 091957
RWRMO

WEATHER SUMMARY FOR MISSOURI
NATIONAL WEATHER SERVICE SPRINGFIELD MO
200 PM CST FRI DEC 09 2016

NOTE: "FAIR" INDICATES FEW OR NO CLOUDS BELOW 12,000 FEET WITH NO
       SIGNIFICANT WEATHER AND/OR OBSTRUCTIONS TO VISIBILITY.
       CURRENT SKY AND/OR WEATHER CONDITIONS ARE NOT AVAILABLE FOR
       CHILLICOTHE AND FARMINGTON.

MOZ001>031-035>038-043-044-053-054-092100-
...NORTHERN AND WESTERN MISSOURI...

CITY           SKY/WX    TMP DP  RH WIND       PRES   REMARKS
KANSAS CTY INT PTSUNNY   28   9  44 S8        30.53F WCI  20
LEE`S SUMMIT   MOSUNNY   27   8  44 SW8       30.55F WCI  19
ST JOSEPH      CLOUDY    26  11  52 S6        30.56F WCI  19
CHILLICOTHE      N/A     26   9  48 VRB3      30.58F

$$
MOZ066>068-077>081-088>096-101>105-092100-
...SOUTHWEST MISSOURI...

CITY           SKY/WX    TMP DP  RH WIND       PRES   REMARKS
SPRINGFIELD    SUNNY     31   8  38 CALM      30.53F
JOPLIN         PTSUNNY   31  12  45 S5        30.55F WCI  26
BRANSON        MOSUNNY   32   9  37 E5        30.54  WCI  27

$$
MOZ032>034-039>042-045>050-055>058-069>072-092100-
...CENTRAL MISSOURI...

CITY           SKY/WX    TMP DP  RH WIND       PRES   REMARKS
COLUMBIA       NOT AVBL
JEFFERSON CITY CLOUDY    26  10  50 W3        30.60F
ROLLA          SUNNY     28   9  44 W6        30.54F WCI  22
SEDALIA        SUNNY     28   7  41 NE3       30.58F
WARRENSBURG    PTSUNNY   28  10  47 SE5       30.59F WCI  23

$$
MOZ051-052-059>065-092100-
...EAST CENTRAL MISSOURI...

CITY           SKY/WX    TMP DP  RH WIND       PRES   REMARKS
ST LOUIS INTL  PTSUNNY   31  12  45 VRB7      30.59F WCI  24
ST CHARLES     CLOUDY    27  14  59 W7        30.61R WCI  19

$$
MOZ072>076-082>087-097>100-106>115-092100-
...SOUTH CENTRAL AND SOUTHEAST MISSOURI...

CITY           SKY/WX    TMP DP  RH WIND       PRES   REMARKS
CAPE GIRARDEAU SUNNY     30  14  51 SW6       30.60F WCI  24
POPLAR BLUFF   SUNNY     33  14  45 SW3       30.60F
WEST PLAINS    SUNNY     31  10  41 W3        30.55F

$$


USA.gov is the U.S. government's official web portal to all federal, state and local government web resources and services.